Weather History for Tirstrup, Denmark

Change the Weather History Date:

Thursday, March 28, 2013

  Actual Average Record
Temperature  
Mean Temperature 27 °F -  
Max Temperature 38 °F 49 °F 60 °F (2012)
Min Temperature 16 °F 34 °F 16 °F (2013)
Degree Days  
Heating Degree Days 38    
Moisture  
Dew Point 21 °F    
Average Humidity 68    
Maximum Humidity 93    
Minimum Humidity 36    
Precipitation  
Precipitation 0.00 in - - ()
Sea Level Pressure  
Sea Level Pressure 30.10 in    
Wind  
Wind Speed 5 mph ()    
Max Wind Speed 15 mph    
Max Gust Speed -    
Visibility 6.0 miles    
Events Fog    
Averages and records for this station are not official NWS values.
T = Trace of Precipitation, MM = Missing Value Source: Averaged Metar Reports

Daily Weather History Graph

Daily Weather History Graph

Search for Another Location

Airport:

Trip Planner

Search our weather history database for the weather conditions in past years. The results will help you decide how hot, cold, wet, or windy it might be!

Date:

Astronomy

Mar. 28, 2013 Rise Set
Actual Time 5:58 AM CET 6:48 PM CET
Civil Twilight 5:20 AM CET 7:26 PM CET
Nautical Twilight 4:34 AM CET 8:12 PM CET
Astronomical Twilight 3:44 AM CET 9:02 PM CET
Moon 8:46 PM CET (3/28) 5:58 AM CET (3/28)
Length of Visible Light 14h 05m
Length of Day
12h 49m
Full, 99% of the Moon is Illuminated
Mar 28
Full
Apr 3
Last Quarter
Apr 10
New
Apr 18
First Quarter
Apr 25
Full

Hourly Weather History & Observations

Time (CET) Temp. Windchill Dew Point Humidity Pressure Visibility Wind Dir Wind Speed Gust Speed Precip Events Conditions
12:20 AM 23.0 °F - 19.4 °F 86% 30.15 in 6.2 mi East 1.2 mph - N/A   Mostly Cloudy
12:50 AM 23.0 °F - 17.6 °F 80% 30.15 in 6.2 mi Calm Calm - N/A   Partly Cloudy
1:00 AM 22 °F - 18 °F 78% 30.18 in 11 mi Calm Calm - -  
1:20 AM 21.2 °F - 17.6 °F 86% 30.15 in - Calm Calm - N/A   Mist
1:50 AM 19.4 °F - 15.8 °F 86% 30.15 in 6.2 mi Calm Calm - N/A Fog Light Freezing Fog
2:20 AM 19.4 °F - 15.8 °F 86% 30.15 in 6.2 mi Calm Calm - N/A   Unknown
2:50 AM 19.4 °F - 15.8 °F 86% 30.15 in 1.2 mi East 1.2 mph - N/A   Unknown
3:20 AM 17.6 °F - 15.8 °F 93% 30.15 in 6.2 mi Calm Calm - N/A   Unknown
3:50 AM 17.6 °F - 14.0 °F 86% 30.15 in 1.8 mi Calm Calm - N/A   Mist
4:00 AM 18 °F - 14 °F 78% 30.16 in 2 mi Calm Calm - - Fog Fog
4:20 AM 17.6 °F - 14.0 °F 86% 30.15 in 0.6 mi Calm Calm - N/A   Mist
4:50 AM 17.6 °F - 14.0 °F 86% 30.12 in 2.8 mi ENE 1.2 mph - N/A   Mist
5:20 AM 17.6 °F - 14.0 °F 86% 30.12 in 0.5 mi Calm Calm - N/A   Partly Cloudy
5:50 AM 17.6 °F - 14.0 °F 86% 30.12 in 6.2 mi NE 1.2 mph - N/A   Unknown
6:20 AM 17.6 °F - 12.2 °F 79% 30.12 in 3.1 mi NE 1.2 mph - N/A   Partly Cloudy
6:50 AM 19.4 °F - 15.8 °F 86% 30.12 in 6.2 mi NE 1.2 mph - N/A   Mostly Cloudy
7:00 AM 20 °F - 16 °F 79% 30.15 in 12 mi Calm Calm - -  
7:20 AM 23.0 °F - 19.4 °F 86% 30.12 in 6.2 mi Calm Calm - N/A   Mostly Cloudy
7:50 AM 30.2 °F 21.9 °F 26.6 °F 86% 30.12 in 6.2 mi East 9.2 mph - N/A   Mostly Cloudy
8:20 AM 32.0 °F 23.6 °F 26.6 °F 80% 30.12 in 6.2 mi East 10.4 mph - N/A   Mostly Cloudy
8:50 AM 32.0 °F 23.0 °F 26.6 °F 80% 30.12 in 6.2 mi East 11.5 mph - N/A   Mostly Cloudy
9:20 AM 33.8 °F 24.8 °F 26.6 °F 75% 30.12 in 6.2 mi East 12.7 mph - N/A   Mostly Cloudy
9:50 AM 33.8 °F 25.3 °F 28.4 °F 81% 30.12 in 6.2 mi East 11.5 mph - N/A   Mostly Cloudy
10:00 AM 34 °F - 27 °F 67% 30.14 in 19 mi East 12.7 mph - -  
10:20 AM 35.6 °F 27.5 °F 26.6 °F 70% 30.12 in 6.2 mi East 11.5 mph - N/A   Partly Cloudy
10:50 AM 35.6 °F 27.5 °F 26.6 °F 70% 30.12 in 6.2 mi East 11.5 mph - N/A   Unknown
11:20 AM 35.6 °F 27.1 °F 26.6 °F 70% 30.12 in 6.2 mi East 12.7 mph - N/A   Unknown
11:50 AM 37.4 °F 29.3 °F 24.8 °F 60% 30.12 in 6.2 mi East 12.7 mph - N/A   Unknown
12:20 PM 37.4 °F 28.9 °F 23.0 °F 56% 30.09 in 6.2 mi East 13.8 mph - N/A   Unknown
12:50 PM 37.4 °F 28.9 °F 24.8 °F 60% 30.09 in 6.2 mi East 13.8 mph - N/A   Unknown
1:00 PM 38 °F - 24 °F 46% 30.12 in 22 mi East 12.7 mph - -  
1:20 PM 37.4 °F 29.3 °F 23.0 °F 56% 30.09 in 6.2 mi East 12.7 mph - N/A   Unknown
1:50 PM 37.4 °F 28.9 °F 21.2 °F 52% 30.09 in 6.2 mi East 13.8 mph - N/A   Unknown
2:20 PM 37.4 °F 28.5 °F 21.2 °F 52% 30.09 in 6.2 mi East 15.0 mph - N/A   Partly Cloudy
2:50 PM 39.2 °F 31.2 °F 21.2 °F 49% 30.06 in 6.2 mi East 13.8 mph - N/A   Unknown
3:20 PM 39.2 °F 31.2 °F 21.2 °F 49% 30.06 in 6.2 mi East 13.8 mph - N/A   Unknown
3:50 PM 37.4 °F 29.3 °F 21.2 °F 52% 30.06 in 6.2 mi East 12.7 mph - N/A   Unknown
4:00 PM 38 °F - 23 °F 41% 30.08 in 25 mi East 13.8 mph - -  
4:20 PM 37.4 °F 29.8 °F 23.0 °F 56% 30.06 in 6.2 mi East 11.5 mph - N/A   Unknown
4:50 PM 37.4 °F 29.8 °F 23.0 °F 56% 30.06 in 6.2 mi ENE 11.5 mph - N/A   Unknown
5:20 PM 37.4 °F 29.8 °F 24.8 °F 60% 30.04 in 6.2 mi ENE 11.5 mph - N/A   Scattered Clouds
5:50 PM 35.6 °F 28.0 °F 23.0 °F 60% 30.04 in 6.2 mi ENE 10.4 mph - N/A   Mostly Cloudy
6:20 PM 35.6 °F 28.6 °F 23.0 °F 60% 30.04 in 6.2 mi ENE 9.2 mph - N/A   Partly Cloudy
6:50 PM 35.6 °F 29.2 °F 21.2 °F 56% 30.04 in 6.2 mi ENE 8.1 mph - N/A   Scattered Clouds
7:00 PM 35 °F - 22 °F 48% 30.07 in 25 mi ENE 8.1 mph - -  
7:20 PM 33.8 °F 27.0 °F 23.0 °F 65% 30.06 in 6.2 mi ENE 8.1 mph - N/A   Mostly Cloudy
7:50 PM 33.8 °F 27.0 °F 24.8 °F 70% 30.04 in 6.2 mi East 8.1 mph - N/A   Mostly Cloudy
8:20 PM 33.8 °F 27.7 °F 24.8 °F 70% 30.04 in 6.2 mi ENE 6.9 mph - N/A   Mostly Cloudy
8:50 PM 33.8 °F 28.6 °F 23.0 °F 65% 30.04 in 6.2 mi ESE 5.8 mph - N/A   Mostly Cloudy
9:20 PM 33.8 °F 27.7 °F 21.2 °F 60% 30.04 in 6.2 mi ESE 6.9 mph - N/A   Mostly Cloudy
9:50 PM 33.8 °F 24.8 °F 15.8 °F 48% 30.04 in 6.2 mi ESE 12.7 mph - N/A   Mostly Cloudy
10:00 PM 33 °F - 16 °F 36% 30.05 in 31 mi ESE 11.5 mph - -  
10:20 PM 33.8 °F 25.3 °F 17.6 °F 52% 30.04 in 6.2 mi ESE 11.5 mph - N/A   Mostly Cloudy
10:50 PM 32.0 °F 23.6 °F 19.4 °F 60% 30.04 in 6.2 mi ESE 10.4 mph - N/A   Mostly Cloudy
11:20 PM 32.0 °F 24.2 °F 21.2 °F 64% 30.04 in 6.2 mi ESE 9.2 mph - N/A   Partly Cloudy
11:50 PM 32.0 °F 23.6 °F 21.2 °F 64% 30.01 in 6.2 mi East 10.4 mph - N/A   Mostly Cloudy